Location: Kumla
(59.1265°N, 15.1401°E)
Time: 17:49:34
(UTC+01:00)

Altair - Pass Details

Date: 11 December 2023
Orbit: 1501 x 1682 km, 47.2° (Epoch: 25 February)

Event Time Altitude Azimuth Distance (km) Brightness Sun altitude
Rises 07:40:04 0° 228° (SW) 4,845 10.0 -7.0°
Reaches altitude 10° 07:43:34 10° 220° (SW) 3,835 9.5 -6.6°
Maximum altitude 07:51:58 35° 160° (SSE) 2,348 9.2 -5.7°
Drops below altitude 10° 08:00:07 10° 100° (E) 3,717 10.7 -4.9°
Sets 08:03:27 0° 92° (E) 4,680 11.0 -4.6°
